MSR59M HECA-HELX

Flight info

Callsign MSR59M
Flight time 0h 50m
Altitude 31000
Route CVO A727 LXR
Aircraft B738/M-SDE2E3FGHIRWXY/LB1

Departure

Time 2026-05-05 14:51
Airport Cairo International Airport (HECA)

Arrival

Time 2026-05-05 15:42
Airport Luxor International Airport (HELX)
Time Latitude Longitude Altitude Speed Heading
2026-05-05 14:16 30.10795 31.39330 373 ft 0 kts 255°
2026-05-05 14:36 30.10796 31.39332 373 ft 2 kts 255°
2026-05-05 14:37 30.10803 31.39361 373 ft 4 kts 250°
2026-05-05 14:37 30.10814 31.39389 373 ft 4 kts 239°
2026-05-05 14:37 30.10830 31.39412 373 ft 4 kts 207°
2026-05-05 14:37 30.10846 31.39417 373 ft 1 kts 165°
2026-05-05 14:38 30.10849 31.39416 373 ft 0 kts 165°
2026-05-05 14:41 30.10837 31.39420 373 ft 7 kts 163°
2026-05-05 14:42 30.10759 31.39444 373 ft 15 kts 166°
2026-05-05 14:42 30.10659 31.39475 373 ft 15 kts 165°
2026-05-05 14:42 30.10612 31.39559 373 ft 14 kts 79°
2026-05-05 14:42 30.10635 31.39666 373 ft 13 kts 80°
2026-05-05 14:43 30.10596 31.39732 373 ft 10 kts 160°
2026-05-05 14:43 30.10529 31.39754 373 ft 10 kts 165°
2026-05-05 14:43 30.10516 31.39758 373 ft 0 kts 166°
2026-05-05 14:44 30.10509 31.39760 373 ft 3 kts 167°
2026-05-05 14:44 30.10471 31.39772 373 ft 6 kts 165°
2026-05-05 14:44 30.10467 31.39773 373 ft 0 kts 165°
2026-05-05 14:45 30.10435 31.39782 373 ft 12 kts 165°
2026-05-05 14:45 30.10342 31.39769 373 ft 15 kts 223°
2026-05-05 14:45 30.10272 31.39681 373 ft 15 kts 227°
2026-05-05 14:45 30.10206 31.39596 373 ft 14 kts 223°
2026-05-05 14:46 30.10155 31.39578 373 ft 0 kts 167°
2026-05-05 14:46 30.10118 31.39606 373 ft 11 kts 141°
2026-05-05 14:47 30.10068 31.39655 373 ft 0 kts 141°
2026-05-05 14:47 30.10061 31.39661 373 ft 7 kts 139°
2026-05-05 14:47 30.10028 31.39695 373 ft 0 kts 131°
2026-05-05 14:49 30.10016 31.39714 373 ft 10 kts 119°
2026-05-05 14:49 30.09997 31.39822 372 ft 14 kts 104°
2026-05-05 14:49 30.10014 31.39885 370 ft 0 kts 48°
2026-05-05 14:51 30.10100 31.39996 370 ft 53 kts 48°
2026-05-05 14:51 30.10499 31.40525 377 ft 120 kts 49°
2026-05-05 14:51 30.11169 31.41420 457 ft 167 kts 49°
2026-05-05 14:51 30.11880 31.42509 1141 ft 172 kts 57°
2026-05-05 14:52 30.12135 31.43920 1758 ft 187 kts 97°
2026-05-05 14:52 30.11542 31.45227 2558 ft 186 kts 139°
2026-05-05 14:52 30.10414 31.45916 3230 ft 186 kts 163°
2026-05-05 14:52 30.09195 31.46380 3968 ft 186 kts 164°
2026-05-05 14:53 30.07906 31.46758 4455 ft 200 kts 176°
2026-05-05 14:53 30.06425 31.46889 4754 ft 221 kts 179°
2026-05-05 14:53 30.04818 31.46996 4948 ft 241 kts 178°
2026-05-05 14:53 30.03079 31.47141 5205 ft 257 kts 177°
2026-05-05 14:54 30.01251 31.47326 5520 ft 272 kts 176°
2026-05-05 14:54 29.99315 31.47550 5925 ft 285 kts 175°
2026-05-05 14:54 29.97306 31.47808 6598 ft 291 kts 175°
2026-05-05 14:54 29.95289 31.48082 7398 ft 292 kts 175°
2026-05-05 14:55 29.93260 31.48368 8158 ft 295 kts 175°
2026-05-05 14:55 29.91212 31.48663 8898 ft 299 kts 175°
2026-05-05 14:55 29.89160 31.48962 9651 ft 302 kts 175°
2026-05-05 14:55 29.87067 31.49270 10351 ft 307 kts 175°
2026-05-05 14:56 29.84878 31.49591 10568 ft 328 kts 175°
2026-05-05 14:56 29.82528 31.49936 10739 ft 350 kts 175°
2026-05-05 14:56 29.80050 31.50303 10948 ft 368 kts 175°
2026-05-05 14:56 29.77466 31.50689 11412 ft 377 kts 175°
2026-05-05 14:57 29.74852 31.51079 12066 ft 380 kts 176°
2026-05-05 14:57 29.72225 31.51469 12693 ft 383 kts 176°
2026-05-05 14:57 29.69559 31.51903 13303 ft 390 kts 173°
2026-05-05 14:57 29.66890 31.52658 13917 ft 397 kts 169°
2026-05-05 14:58 29.64217 31.53546 14457 ft 402 kts 168°
2026-05-05 14:58 29.61557 31.54463 15077 ft 405 kts 168°
2026-05-05 14:58 29.58849 31.55396 15713 ft 407 kts 168°
2026-05-05 14:58 29.56126 31.56322 16320 ft 410 kts 168°
2026-05-05 14:59 29.53364 31.57247 16890 ft 414 kts 169°
2026-05-05 14:59 29.50583 31.58169 17463 ft 418 kts 169°
2026-05-05 14:59 29.47773 31.59093 18034 ft 421 kts 169°
2026-05-05 14:59 29.44944 31.60021 18564 ft 425 kts 169°
2026-05-05 15:00 29.42090 31.60956 19073 ft 428 kts 169°
2026-05-05 15:00 29.40192 31.61578 19422 ft 429 kts 170°
2026-05-05 15:00 29.36375 31.62830 20115 ft 432 kts 170°
2026-05-05 15:00 29.33475 31.63776 20636 ft 434 kts 170°
2026-05-05 15:01 29.30560 31.64726 21139 ft 437 kts 170°
2026-05-05 15:01 29.27626 31.65683 21635 ft 439 kts 170°
2026-05-05 15:01 29.24679 31.66644 22126 ft 442 kts 171°
2026-05-05 15:01 29.21712 31.67612 22597 ft 444 kts 171°
2026-05-05 15:02 29.18724 31.68586 23052 ft 447 kts 171°
2026-05-05 15:02 29.15720 31.69564 23515 ft 450 kts 171°
2026-05-05 15:02 29.12706 31.70546 23902 ft 452 kts 171°
2026-05-05 15:02 29.09670 31.71534 24285 ft 454 kts 171°
2026-05-05 15:03 29.06617 31.72528 24667 ft 456 kts 171°
2026-05-05 15:03 29.03557 31.73523 25064 ft 457 kts 170°
2026-05-05 15:03 29.00491 31.74520 25458 ft 459 kts 171°
2026-05-05 15:03 28.97450 31.75505 25800 ft 461 kts 171°
2026-05-05 15:04 28.94356 31.76495 26138 ft 463 kts 171°
2026-05-05 15:04 28.91243 31.77483 26476 ft 465 kts 171°
2026-05-05 15:04 28.88113 31.78473 26816 ft 467 kts 171°
2026-05-05 15:04 28.84973 31.79466 27145 ft 469 kts 171°
2026-05-05 15:05 28.78653 31.81468 27769 ft 473 kts 171°
2026-05-05 15:05 28.75468 31.82478 28077 ft 475 kts 171°
2026-05-05 15:05 28.72283 31.83487 28384 ft 477 kts 171°
2026-05-05 15:06 28.69080 31.84501 28671 ft 479 kts 171°
2026-05-05 15:06 28.65866 31.85518 28954 ft 481 kts 171°
2026-05-05 15:06 28.62632 31.86541 29234 ft 483 kts 171°
2026-05-05 15:06 28.59381 31.87569 29521 ft 485 kts 171°
2026-05-05 15:07 28.56126 31.88598 29879 ft 485 kts 171°
2026-05-05 15:07 28.52884 31.89624 30298 ft 483 kts 171°
2026-05-05 15:07 28.49656 31.90645 30721 ft 480 kts 171°
2026-05-05 15:07 28.46444 31.91660 31079 ft 478 kts 171°
2026-05-05 15:08 28.43256 31.92662 31072 ft 483 kts 171°
2026-05-05 15:08 28.36781 31.94699 31085 ft 480 kts 171°
2026-05-05 15:09 28.30378 31.96730 31084 ft 476 kts 172°
2026-05-05 15:09 28.24006 31.98717 31066 ft 476 kts 171°
2026-05-05 15:10 28.17632 32.00712 31077 ft 475 kts 171°
2026-05-05 15:10 28.11245 32.02713 31082 ft 475 kts 171°
2026-05-05 15:11 28.04870 32.04708 31082 ft 475 kts 171°
2026-05-05 15:11 27.99565 32.06379 31081 ft 475 kts 171°
2026-05-05 15:12 27.93196 32.08419 31011 ft 475 kts 171°
2026-05-05 15:12 27.86859 32.10450 30775 ft 475 kts 171°
2026-05-05 15:12 27.83671 32.11467 30407 ft 475 kts 171°
2026-05-05 15:13 27.79468 32.12808 30017 ft 473 kts 171°
2026-05-05 15:13 27.74129 32.14507 29502 ft 479 kts 171°
2026-05-05 15:13 27.70968 32.15512 29105 ft 478 kts 171°
2026-05-05 15:14 27.67761 32.16532 28683 ft 478 kts 171°
2026-05-05 15:14 27.64549 32.17553 28293 ft 480 kts 170°
2026-05-05 15:14 27.61322 32.18578 27879 ft 481 kts 170°
2026-05-05 15:14 27.58123 32.19597 27724 ft 467 kts 169°
2026-05-05 15:15 27.54961 32.20606 26801 ft 473 kts 170°
2026-05-05 15:15 27.51817 32.21603 26412 ft 461 kts 170°
2026-05-05 15:15 27.48768 32.22573 26213 ft 455 kts 171°
2026-05-05 15:15 27.45715 32.23537 26098 ft 456 kts 171°
2026-05-05 15:16 27.42701 32.24492 26132 ft 441 kts 171°
2026-05-05 15:16 27.39745 32.25427 26124 ft 444 kts 171°
2026-05-05 15:16 27.36730 32.26373 26135 ft 456 kts 170°
2026-05-05 15:16 27.33688 32.27330 26132 ft 464 kts 170°
2026-05-05 15:17 27.30565 32.28315 25979 ft 466 kts 170°
2026-05-05 15:17 27.27460 32.29299 25582 ft 460 kts 170°
2026-05-05 15:17 27.24416 32.30268 25297 ft 451 kts 170°
2026-05-05 15:17 27.21440 32.31215 24927 ft 437 kts 170°
2026-05-05 15:18 27.18522 32.32139 24643 ft 440 kts 170°
2026-05-05 15:18 27.15529 32.33076 24304 ft 452 kts 170°
2026-05-05 15:18 27.12460 32.34034 23961 ft 462 kts 169°
2026-05-05 15:18 27.09339 32.35012 23681 ft 469 kts 169°
2026-05-05 15:19 27.06172 32.36006 23320 ft 475 kts 170°
2026-05-05 15:19 27.02941 32.36760 22922 ft 472 kts 177°
2026-05-05 15:19 26.99696 32.37191 22589 ft 461 kts 179°
2026-05-05 15:19 26.96595 32.37560 22301 ft 436 kts 179°
2026-05-05 15:20 26.93651 32.37905 22024 ft 414 kts 179°
2026-05-05 15:20 26.90819 32.38241 21772 ft 406 kts 179°
2026-05-05 15:20 26.88011 32.38580 21526 ft 406 kts 179°
2026-05-05 15:20 26.85182 32.38927 21270 ft 411 kts 179°
2026-05-05 15:21 26.82377 32.39280 21048 ft 409 kts 179°
2026-05-05 15:21 26.79562 32.39644 20792 ft 404 kts 178°
2026-05-05 15:21 26.76777 32.40007 20540 ft 401 kts 178°
2026-05-05 15:21 26.74004 32.40371 20310 ft 401 kts 178°
2026-05-05 15:22 26.71229 32.40734 20068 ft 401 kts 178°
2026-05-05 15:22 26.68454 32.41098 19830 ft 401 kts 178°
2026-05-05 15:22 26.65686 32.41465 19592 ft 399 kts 178°
2026-05-05 15:22 26.62940 32.41822 19331 ft 396 kts 178°
2026-05-05 15:23 26.60205 32.42175 19111 ft 395 kts 178°
2026-05-05 15:23 26.57478 32.42529 18778 ft 393 kts 178°
2026-05-05 15:23 26.54767 32.42882 18348 ft 390 kts 178°
2026-05-05 15:23 26.52081 32.43234 17851 ft 387 kts 178°
2026-05-05 15:24 26.49416 32.43582 17359 ft 384 kts 178°
2026-05-05 15:24 26.46806 32.43922 16885 ft 381 kts 178°
2026-05-05 15:24 26.44172 32.44268 16417 ft 379 kts 178°
2026-05-05 15:24 26.41565 32.44608 15964 ft 376 kts 178°
2026-05-05 15:25 26.38966 32.44945 15491 ft 373 kts 178°
2026-05-05 15:25 26.36394 32.45278 15042 ft 371 kts 177°
2026-05-05 15:25 26.33832 32.45609 14574 ft 369 kts 178°
2026-05-05 15:25 26.31288 32.45938 14124 ft 365 kts 178°
2026-05-05 15:26 26.28768 32.46269 13652 ft 363 kts 178°
2026-05-05 15:26 26.26263 32.46593 13174 ft 362 kts 178°
2026-05-05 15:26 26.23766 32.46915 12702 ft 360 kts 178°
2026-05-05 15:26 26.21284 32.47235 12247 ft 358 kts 178°
2026-05-05 15:27 26.18818 32.47554 11786 ft 356 kts 178°
2026-05-05 15:27 26.16392 32.47868 11324 ft 354 kts 177°
2026-05-05 15:27 26.13943 32.48185 10898 ft 352 kts 177°
2026-05-05 15:27 26.11544 32.48497 10726 ft 342 kts 177°
2026-05-05 15:28 26.09211 32.48801 10573 ft 333 kts 177°
2026-05-05 15:28 26.06942 32.49096 10420 ft 323 kts 177°
2026-05-05 15:28 26.04744 32.49381 10275 ft 314 kts 178°
2026-05-05 15:28 26.02600 32.49659 10147 ft 306 kts 178°
2026-05-05 15:29 26.00518 32.49928 10020 ft 298 kts 178°
2026-05-05 15:29 25.98477 32.50191 9780 ft 295 kts 178°
2026-05-05 15:29 25.96444 32.50451 9477 ft 293 kts 178°
2026-05-05 15:29 25.94429 32.50710 9192 ft 291 kts 177°
2026-05-05 15:30 25.92419 32.50968 8890 ft 290 kts 177°
2026-05-05 15:30 25.90420 32.51224 8595 ft 289 kts 177°
2026-05-05 15:30 25.88433 32.51480 8299 ft 287 kts 177°
2026-05-05 15:30 25.86454 32.51735 8002 ft 285 kts 177°
2026-05-05 15:31 25.84478 32.51989 7718 ft 285 kts 176°
2026-05-05 15:31 25.82539 32.52239 7414 ft 284 kts 177°
2026-05-05 15:31 25.80580 32.52490 7151 ft 282 kts 176°
2026-05-05 15:31 25.78636 32.52739 6852 ft 279 kts 175°
2026-05-05 15:32 25.76730 32.52985 6548 ft 272 kts 175°
2026-05-05 15:32 25.74874 32.53226 6305 ft 265 kts 175°
2026-05-05 15:32 25.73058 32.53459 5982 ft 260 kts 175°
2026-05-05 15:32 25.71282 32.53688 5714 ft 254 kts 175°
2026-05-05 15:33 25.69549 32.53910 5458 ft 247 kts 175°
2026-05-05 15:33 25.67863 32.54126 5221 ft 240 kts 174°
2026-05-05 15:33 25.66219 32.54338 4970 ft 236 kts 175°
2026-05-05 15:33 25.64595 32.54546 4750 ft 234 kts 175°
2026-05-05 15:34 25.62972 32.54753 4508 ft 233 kts 174°
2026-05-05 15:34 25.61376 32.54959 4260 ft 230 kts 175°
2026-05-05 15:34 25.59807 32.55160 4079 ft 224 kts 175°
2026-05-05 15:34 25.58277 32.55356 3871 ft 218 kts 175°
2026-05-05 15:35 25.56786 32.55548 3652 ft 213 kts 175°
2026-05-05 15:35 25.55334 32.55734 3412 ft 207 kts 176°
2026-05-05 15:35 25.53896 32.55917 3267 ft 211 kts 175°
2026-05-05 15:35 25.52437 32.56102 3200 ft 211 kts 176°
2026-05-05 15:36 25.51007 32.56282 3208 ft 208 kts 176°
2026-05-05 15:36 25.49597 32.56667 3198 ft 213 kts 152°
2026-05-05 15:36 25.48492 32.57748 3205 ft 214 kts 120°
2026-05-05 15:36 25.48003 32.59258 3196 ft 205 kts 89°
2026-05-05 15:37 25.48208 32.60744 3206 ft 190 kts 60°
2026-05-05 15:37 25.48931 32.61903 3208 ft 179 kts 36°
2026-05-05 15:37 25.49959 32.62592 3227 ft 175 kts 19°
2026-05-05 15:37 25.51091 32.63174 3212 ft 181 kts 19°
2026-05-05 15:38 25.52243 32.63730 3082 ft 177 kts 19°
2026-05-05 15:38 25.53342 32.64246 2877 ft 167 kts 18°
2026-05-05 15:38 25.54388 32.64735 2666 ft 158 kts 17°
2026-05-05 15:38 25.55369 32.65192 2450 ft 149 kts 17°
2026-05-05 15:39 25.56302 32.65625 2284 ft 146 kts 18°
2026-05-05 15:39 25.57257 32.66067 2100 ft 150 kts 17°
2026-05-05 15:39 25.58202 32.66507 1897 ft 149 kts 18°
2026-05-05 15:39 25.59138 32.66944 1707 ft 144 kts 16°
2026-05-05 15:40 25.60043 32.67363 1511 ft 141 kts 17°
2026-05-05 15:40 25.60949 32.67766 1349 ft 145 kts 19°
2026-05-05 15:40 25.61879 32.68240 1180 ft 146 kts 20°
2026-05-05 15:40 25.62789 32.68697 954 ft 143 kts 21°
2026-05-05 15:41 25.63717 32.69083 757 ft 140 kts 18°
2026-05-05 15:41 25.64614 32.69508 557 ft 140 kts 19°
2026-05-05 15:41 25.65510 32.69910 411 ft 135 kts 20°
2026-05-05 15:41 25.66359 32.70297 306 ft 125 kts 17°
2026-05-05 15:42 25.67069 32.70628 288 ft 91 kts 22°
2026-05-05 15:42 25.67494 32.70822 287 ft 44 kts 21°
2026-05-05 15:42 25.67727 32.70927 285 ft 24 kts
2026-05-05 15:42 25.67803 32.70818 284 ft 18 kts 271°
2026-05-05 15:43 25.67739 32.70762 284 ft 12 kts 203°
2026-05-05 15:43 25.67664 32.70726 285 ft 12 kts 202°
2026-05-05 15:43 25.67590 32.70692 286 ft 11 kts 203°
2026-05-05 15:43 25.67519 32.70659 290 ft 11 kts 202°
2026-05-05 15:44 25.67468 32.70603 286 ft 11 kts 259°
2026-05-05 15:44 25.67490 32.70526 286 ft 11 kts 296°
2026-05-05 15:44 25.67521 32.70455 286 ft 10 kts 295°
2026-05-05 15:44 25.67512 32.70385 288 ft 10 kts 220°
2026-05-05 15:45 25.67452 32.70347 287 ft 10 kts 205°
2026-05-05 15:45 25.67391 32.70313 287 ft 10 kts 208°
2026-05-05 15:45 25.67333 32.70281 288 ft 9 kts 206°
2026-05-05 15:45 25.67292 32.70236 288 ft 9 kts 275°
2026-05-05 15:46 25.67317 32.70177 290 ft 5 kts 297°
2026-05-05 15:46 25.67330 32.70148 288 ft 1 kts 296°
2026-05-05 15:46 25.67331 32.70148 288 ft 0 kts 296°